Home   Weather   Cambridge   Past weeks

Flag for Canada Past Weather in Cambridge, Ontario, Canada — Yesterday and Last 2 Weeks

Now
61 °F

Mostly cloudy.


Feels Like: 61 °F
Forecast: 56 / 74 °F
Wind: 10 mph from West

Location: Waterloo Well

Current Time: May 29, 2017 at 7:39:53 am

Latest Report: May 29, 2017 at 7:00 am


Visibility: 9 mi

Pressure: 29.72 "Hg

Humidity: 88%

Dew Point: 57 °F

Location of CambridgeLocation

Past Weather in Cambridge — Graph

°F

Cambridge Temperature Yesterday

Maximum temperature yesterday: 72 °F (at 4:00 pm)
Minimum temperature yesterday: 48 °F (at 3:37 am)
Average temperature yesterday: 58 °F

High & Low Weather Summary for the Past Weeks

 TemperatureHumidityPressure
High82 °F (May 17, 3:00 pm)100% (May 16, 5:12 am)30.33 "Hg (May 16, 5:12 am)
Low37 °F (May 15, 5:00 am)25% (May 20, 5:00 pm)29.50 "Hg (May 25, 4:41 pm)
Average57 °F76%29.87 "Hg
* Reported May 14 6:00 am — May 29 6:22 am, Cambridge. Weather by CustomWeather, © 2017

Note: Actual official high and low records may vary slightly from our data, if they occured in-between our weather recording intervals... More about our weather records

Advertising

Cambridge Weather History for the Previous 24 Hours

Scroll right to see more
 ConditionsComfort  
Time TempWeatherWind HumidityBarometerVisibility
6:22 am
Mon, May 29
59 °FCloudy.6 mph94%29.70 "Hg9 mi
6:00 am59 °FMostly cloudy.6 mph94%29.68 "Hg9 mi
5:57 am59 °FMostly cloudy.7 mph94%29.68 "Hg9 mi
5:30 am59 °FLight rain. Partly cloudy.6 mph94%29.66 "Hg9 mi
5:01 am61 °FMostly cloudy.12 mph88%29.68 "Hg9 mi
4:27 am61 °FMostly cloudy.9 mph88%29.67 "Hg9 mi
4:00 am61 °FMostly cloudy.7 mph88%29.67 "Hg9 mi
3:00 am61 °FMostly cloudy.10 mph88%29.68 "Hg9 mi
2:00 am63 °FOvercast.9 mph83%29.68 "Hg9 mi
1:00 am61 °FOvercast.5 mph88%29.68 "Hg9 mi
12:33 am59 °FOvercast.8 mph94%29.69 "Hg9 mi
12:10 am61 °FLight rain. Mostly cloudy.7 mph88%29.70 "Hg9 mi
11:00 pm
Sun, May 28
63 °FMostly cloudy.No wind83%29.69 "Hg9 mi
10:00 pm61 °FOvercast.3 mph88%29.69 "Hg9 mi
8:00 pm64 °FPartly sunny.7 mph78%29.73 "Hg9 mi
7:00 pm66 °FSunny.10 mph73%29.72 "Hg9 mi
6:00 pm72 °FSunny.9 mph65%29.73 "Hg9 mi
5:00 pm72 °FPassing clouds.9 mph61%29.72 "Hg9 mi
4:00 pm72 °FPassing clouds.7 mph65%29.74 "Hg9 mi
3:00 pm70 °FSunny.12 mph60%29.77 "Hg9 mi
2:00 pm70 °FPassing clouds.10 mph60%29.78 "Hg9 mi
1:00 pm70 °FPassing clouds.12 mph60%29.80 "Hg9 mi
12:00 pm68 °FSunny.12 mph64%29.82 "Hg9 mi
11:00 am68 °FPassing clouds.10 mph60%29.83 "Hg9 mi
10:00 am66 °FPassing clouds.6 mph68%29.84 "Hg9 mi
9:00 am61 °FPartly sunny.8 mph83%29.85 "Hg9 mi
8:00 am55 °FPartly sunny.3 mph100%29.86 "Hg9 mi
7:28 am54 °FFog.2 mph100%29.85 "Hg6 mi
7:09 am52 °FFog.No wind94%29.86 "Hg3 mi
Weather by CustomWeather, © 2017

See weather overviewHow to use our weather pages